Time,TemperatureF,DewpointF,PressureIn,WindDirection,WindDirectionDegrees,WindSpeedMPH,WindSpeedGustMPH,Humidity,HourlyPrecipIn,Conditions,Clouds,dailyrainin,SoftwareType,DateUTC
2013-12-24 00:01:00,30.8,29.5,30.33,NNE,19,0.0,0.0,95,0.00,RA,,0.00,WeatherDisplay:10.37,2013-12-24 05:01:00,
2013-12-24 00:06:00,30.7,29.4,30.33,NNE,18,1.2,1.2,95,0.00,RA,,0.00,WeatherDisplay:10.37,2013-12-24 05:06:00,
2013-12-24 00:11:00,30.7,29.4,30.33,NNE,19,0.0,0.0,95,0.00,CLR,,0.00,WeatherDisplay:10.37,2013-12-24 05:11:00,
2013-12-24 00:16:00,30.7,29.4,30.32,NNE,18,0.0,0.0,95,0.00,CLR,,0.00,WeatherDisplay:10.37,2013-12-24 05:16:00,
2013-12-24 00:21:00,30.7,29.7,30.32,NNE,18,0.0,0.0,96,0.00,,,0.00,WeatherDisplay:10.37,2013-12-24 05:21:00,
2013-12-24 00:26:00,30.7,29.4,30.33,NNE,19,0.0,0.0,95,0.00,CLR,,0.00,WeatherDisplay:10.37,2013-12-24 05:26:00,
2013-12-24 00:31:00,30.6,29.3,30.33,NNE,20,0.0,0.0,95,0.00,CLR,,0.00,WeatherDisplay:10.37,2013-12-24 05:31:00,
2013-12-24 00:36:00,30.4,28.9,30.33,NNE,15,3.5,3.5,94,0.00,CLR,,0.00,WeatherDisplay:10.37,2013-12-24 05:36:00,
2013-12-24 00:41:00,30.2,28.9,30.33,NNW,346,2.3,2.3,95,0.00,CLR,,0.00,WeatherDisplay:10.37,2013-12-24 05:41:00,
2013-12-24 00:46:00,30.1,28.6,30.32,NNW,346,0.0,0.4,94,0.00,CLR,,0.00,WeatherDisplay:10.37,2013-12-24 05:46:00,
2013-12-24 00:51:00,30.0,28.7,30.32,NNW,346,1.2,0.0,95,0.00,CLR,,0.00,WeatherDisplay:10.37,2013-12-24 05:51:00,
2013-12-24 00:56:00,29.8,28.3,30.32,NW,324,4.6,4.6,94,0.00,CLR,,0.00,WeatherDisplay:10.37,2013-12-24 05:56:00,
2013-12-24 01:01:00,29.7,28.2,30.33,NW,312,7.6,7.6,94,0.00,CLR,,0.00,WeatherDisplay:10.37,2013-12-24 06:01:00,
2013-12-24 01:06:00,29.6,28.1,30.33,NW,324,3.5,3.5,94,0.00,CLR,,0.00,WeatherDisplay:10.37,2013-12-24 06:06:00,
2013-12-24 01:11:00,29.4,27.9,30.33,NW,308,6.9,6.9,94,0.00,CLR,,0.00,WeatherDisplay:10.37,2013-12-24 06:11:00,
2013-12-24 01:16:00,29.3,27.8,30.33,West,273,9.2,9.2,94,0.00,CLR,,0.00,WeatherDisplay:10.37,2013-12-24 06:16:00,
2013-12-24 01:21:00,29.2,27.7,30.33,NW,318,6.9,6.9,94,0.00,CLR,,0.00,WeatherDisplay:10.37,2013-12-24 06:21:00,
2013-12-24 01:26:00,29.1,27.6,30.34,SW,220,6.9,6.9,94,0.00,CLR,,0.00,WeatherDisplay:10.37,2013-12-24 06:26:00,
2013-12-24 01:31:00,29.0,27.5,30.33,NW,324,7.6,7.6,94,0.00,CLR,,0.00,WeatherDisplay:10.37,2013-12-24 06:31:00,
2013-12-24 01:36:00,28.9,27.4,30.34,NW,307,11.5,11.5,94,0.00,CLR,,0.00,WeatherDisplay:10.37,2013-12-24 06:36:00,
2013-12-24 01:41:00,28.8,27.3,30.34,WNW,287,16.1,16.1,94,0.00,CLR,,0.00,WeatherDisplay:10.37,2013-12-24 06:41:00,
2013-12-24 01:46:00,28.7,27.2,30.34,WNW,303,9.2,9.2,94,0.00,CLR,,0.00,WeatherDisplay:10.37,2013-12-24 06:46:00,
2013-12-24 01:51:00,28.7,27.2,30.34,NW,312,5.8,5.8,94,0.00,CLR,,0.00,WeatherDisplay:10.37,2013-12-24 06:51:00,
2013-12-24 01:56:00,28.6,26.8,30.33,NW,312,0.0,0.0,93,0.00,CLR,,0.00,WeatherDisplay:10.37,2013-12-24 06:56:00,
2013-12-24 02:02:00,28.6,27.1,30.34,NNW,333,2.2,2.2,94,0.00,CLR,,0.00,WeatherDisplay:10.37,2013-12-24 07:02:00,
2013-12-24 02:07:00,28.6,27.1,30.34,NNW,346,0.0,0.0,94,0.00,CLR,,0.00,WeatherDisplay:10.37,2013-12-24 07:07:00,
2013-12-24 02:12:00,28.6,27.1,30.34,WSW,247,8.1,8.1,94,0.00,CLR,,0.00,WeatherDisplay:10.37,2013-12-24 07:12:00,
2013-12-24 02:17:00,28.6,27.1,30.34,ESE,104,5.4,5.4,94,0.00,CLR,,0.00,WeatherDisplay:10.37,2013-12-24 07:17:00,
2013-12-24 02:22:00,28.6,27.1,30.34,ENE,71,3.3,4.0,94,0.00,CLR,,0.00,WeatherDisplay:10.37,2013-12-24 07:22:00,
2013-12-24 02:27:00,28.7,27.4,30.35,ESE,109,2.3,2.3,95,0.00,CLR,,0.00,WeatherDisplay:10.37,2013-12-24 07:27:00,
2013-12-24 02:32:00,28.8,27.5,30.35,WSW,245,9.3,9.3,95,0.00,CLR,,0.00,WeatherDisplay:10.37,2013-12-24 07:32:00,
2013-12-24 02:37:00,28.8,27.5,30.36,SSW,205,4.4,4.4,95,0.00,CLR,,0.00,WeatherDisplay:10.37,2013-12-24 07:37:00,
2013-12-24 02:42:00,28.8,27.3,30.36,WSW,238,10.4,10.4,94,0.00,CLR,,0.00,WeatherDisplay:10.37,2013-12-24 07:42:00,
2013-12-24 02:47:00,28.7,27.2,30.36,NW,313,9.2,9.2,94,0.00,CLR,,0.00,WeatherDisplay:10.37,2013-12-24 07:47:00,
2013-12-24 02:52:00,28.5,26.7,30.36,NW,310,9.2,9.2,93,0.00,CLR,,0.00,WeatherDisplay:10.37,2013-12-24 07:52:00,
2013-12-24 02:57:00,28.3,26.3,30.36,NW,310,6.9,6.9,92,0.00,CLR,,0.00,WeatherDisplay:10.37,2013-12-24 07:57:00,
2013-12-24 03:02:00,28.2,26.4,30.36,WNW,295,8.1,8.1,93,0.00,CLR,,0.00,WeatherDisplay:10.37,2013-12-24 08:02:00,
2013-12-24 03:07:00,28.2,26.4,30.36,WNW,295,3.3,3.5,93,0.00,CLR,,0.00,WeatherDisplay:10.37,2013-12-24 08:07:00,
2013-12-24 03:12:00,28.3,26.8,30.35,NW,305,0.0,0.0,94,0.00,CLR,,0.00,WeatherDisplay:10.37,2013-12-24 08:12:00,
2013-12-24 03:17:00,28.4,26.9,30.35,NW,305,0.0,0.0,94,0.00,CLR,,0.00,WeatherDisplay:10.37,2013-12-24 08:17:00,
2013-12-24 03:22:00,28.3,26.5,30.35,NW,305,0.0,0.0,93,0.00,CLR,,0.00,WeatherDisplay:10.37,2013-12-24 08:22:00,
2013-12-24 03:27:00,28.3,26.8,30.35,NW,305,0.0,0.0,94,0.00,CLR,,0.00,WeatherDisplay:10.37,2013-12-24 08:27:00,
2013-12-24 03:32:00,28.2,26.7,30.36,NW,305,0.0,0.0,94,0.00,CLR,,0.00,WeatherDisplay:10.37,2013-12-24 08:32:00,
2013-12-24 03:37:00,28.1,26.6,30.36,NW,320,2.3,0.0,94,0.00,CLR,,0.00,WeatherDisplay:10.37,2013-12-24 08:37:00,
2013-12-24 03:42:00,28.0,26.5,30.36,NW,324,2.3,2.3,94,0.00,CLR,,0.00,WeatherDisplay:10.37,2013-12-24 08:42:00,
2013-12-24 03:47:00,27.9,26.1,30.36,NNW,333,3.5,3.5,93,0.00,CLR,,0.00,WeatherDisplay:10.37,2013-12-24 08:47:00,
2013-12-24 03:52:00,27.9,26.4,30.36,NE,54,1.1,0.0,94,0.00,CLR,,0.00,WeatherDisplay:10.37,2013-12-24 08:52:00,
2013-12-24 03:57:00,27.9,26.4,30.36,East,87,4.6,4.6,94,0.00,CLR,,0.00,WeatherDisplay:10.37,2013-12-24 08:57:00,
2013-12-24 04:02:00,27.8,26.3,30.36,ENE,76,3.3,3.3,94,0.00,CLR,,0.00,WeatherDisplay:10.37,2013-12-24 09:02:00,
2013-12-24 04:07:00,27.9,26.4,30.36,SSE,150,5.8,5.8,94,0.00,CLR,,0.00,WeatherDisplay:10.37,2013-12-24 09:07:00,
2013-12-24 04:12:00,27.9,26.4,30.36,NW,310,5.8,5.8,94,0.00,CLR,,0.00,WeatherDisplay:10.37,2013-12-24 09:12:00,
2013-12-24 04:17:00,27.8,26.0,30.36,NNW,346,5.8,5.8,93,0.00,CLR,,0.00,WeatherDisplay:10.37,2013-12-24 09:17:00,
2013-12-24 04:22:00,27.8,26.3,30.36,North,351,0.0,0.0,94,0.00,CLR,,0.00,WeatherDisplay:10.37,2013-12-24 09:22:00,
2013-12-24 04:27:00,27.7,25.9,30.37,North,351,0.0,0.0,93,0.00,CLR,,0.00,WeatherDisplay:10.37,2013-12-24 09:27:00,
2013-12-24 04:32:00,27.7,26.2,30.36,North,351,0.0,0.0,94,0.00,CLR,,0.00,WeatherDisplay:10.37,2013-12-24 09:32:00,
2013-12-24 04:37:00,27.7,26.2,30.36,North,351,0.0,0.0,94,0.00,CLR,,0.00,WeatherDisplay:10.37,2013-12-24 09:37:00,
2013-12-24 04:42:00,27.7,26.2,30.36,North,351,0.0,0.0,94,0.00,CLR,,0.00,WeatherDisplay:10.37,2013-12-24 09:42:00,
2013-12-24 04:47:00,27.6,26.1,30.36,North,351,0.0,0.0,94,0.00,CLR,,0.00,WeatherDisplay:10.37,2013-12-24 09:47:00,
2013-12-24 04:52:00,27.5,26.0,30.37,North,351,1.2,1.2,94,0.00,CLR,,0.00,WeatherDisplay:10.37,2013-12-24 09:52:00,
2013-12-24 04:57:00,27.4,25.9,30.37,NNW,335,2.2,2.2,94,0.00,CLR,,0.00,WeatherDisplay:10.37,2013-12-24 09:57:00,
2013-12-24 05:02:00,27.3,25.8,30.37,NW,320,0.0,0.0,94,0.00,CLR,,0.00,WeatherDisplay:10.37,2013-12-24 10:02:00,
2013-12-24 05:07:00,27.3,26.1,30.37,WSW,239,2.3,2.3,95,0.00,CLR,,0.00,WeatherDisplay:10.37,2013-12-24 10:07:00,
2013-12-24 05:12:00,27.3,25.8,30.37,SW,219,5.8,5.8,94,0.00,CLR,,0.00,WeatherDisplay:10.37,2013-12-24 10:12:00,
2013-12-24 05:17:00,27.2,25.7,30.37,WSW,251,5.3,5.3,94,0.00,CLR,,0.00,WeatherDisplay:10.37,2013-12-24 10:17:00,
2013-12-24 05:22:00,27.2,25.7,30.37,NNW,332,0.0,0.0,94,0.00,CLR,,0.00,WeatherDisplay:10.37,2013-12-24 10:22:00,
2013-12-24 05:27:00,27.2,25.7,30.38,WSW,252,4.6,4.6,94,0.00,CLR,,0.00,WeatherDisplay:10.37,2013-12-24 10:27:00,
2013-12-24 05:32:00,27.1,25.6,30.38,NW,308,3.5,3.5,94,0.00,CLR,,0.00,WeatherDisplay:10.37,2013-12-24 10:32:00,
2013-12-24 05:37:00,27.1,25.6,30.38,NW,306,0.0,0.0,94,0.00,CLR,,0.00,WeatherDisplay:10.37,2013-12-24 10:37:00,
2013-12-24 05:42:00,27.0,25.5,30.38,NW,304,3.5,3.5,94,0.00,CLR,,0.00,WeatherDisplay:10.37,2013-12-24 10:42:00,
2013-12-24 05:47:00,26.8,25.0,30.38,WNW,295,2.3,2.3,93,0.00,CLR,,0.00,WeatherDisplay:10.37,2013-12-24 10:47:00,
2013-12-24 05:52:00,26.7,24.9,30.38,WNW,289,8.1,8.1,93,0.00,CLR,,0.00,WeatherDisplay:10.37,2013-12-24 10:52:00,
2013-12-24 05:57:00,26.7,24.9,30.38,NW,305,6.9,6.9,93,0.00,CLR,,0.00,WeatherDisplay:10.37,2013-12-24 10:57:00,
2013-12-24 06:02:00,26.7,24.9,30.37,NW,322,6.9,6.9,93,0.00,CLR,,0.00,WeatherDisplay:10.37,2013-12-24 11:02:00,
2013-12-24 06:07:00,26.7,24.9,30.38,NNW,335,3.5,3.5,93,0.00,CLR,,0.00,WeatherDisplay:10.37,2013-12-24 11:07:00,
2013-12-24 06:12:00,26.7,24.9,30.38,NNW,329,1.2,0.0,93,0.00,CLR,,0.00,WeatherDisplay:10.37,2013-12-24 11:12:00,
2013-12-24 06:17:00,26.7,24.9,30.38,NW,304,8.1,8.1,93,0.00,CLR,,0.00,WeatherDisplay:10.37,2013-12-24 11:17:00,
2013-12-24 06:22:00,26.7,24.9,30.39,West,265,4.6,4.6,93,0.00,CLR,,0.00,WeatherDisplay:10.37,2013-12-24 11:22:00,
2013-12-24 06:27:00,26.8,25.0,30.38,WNW,295,3.5,3.5,93,0.00,CLR,,0.00,WeatherDisplay:10.37,2013-12-24 11:27:00,
2013-12-24 06:32:00,26.8,25.0,30.39,NNW,331,0.0,0.0,93,0.00,CLR,,0.00,WeatherDisplay:10.37,2013-12-24 11:32:00,
2013-12-24 06:37:00,26.7,24.9,30.39,West,281,6.9,6.9,93,0.00,CLR,,0.00,WeatherDisplay:10.37,2013-12-24 11:37:00,
2013-12-24 06:42:00,26.7,24.9,30.39,NE,38,5.8,5.8,93,0.00,CLR,,0.00,WeatherDisplay:10.37,2013-12-24 11:42:00,
2013-12-24 06:47:00,26.8,25.3,30.39,NW,305,9.2,9.2,94,0.00,CLR,,0.00,WeatherDisplay:10.37,2013-12-24 11:47:00,
2013-12-24 06:52:00,26.7,24.9,30.39,North,360,2.3,2.3,93,0.00,CLR,,0.00,WeatherDisplay:10.37,2013-12-24 11:52:00,
2013-12-24 06:57:00,26.6,24.6,30.40,ENE,60,9.2,9.2,92,0.00,CLR,,0.00,WeatherDisplay:10.37,2013-12-24 11:57:00,
2013-12-24 07:02:00,26.5,24.2,30.40,NNW,339,10.4,10.4,91,0.00,CLR,,0.00,WeatherDisplay:10.37,2013-12-24 12:02:00,
2013-12-24 07:07:00,26.5,24.8,30.41,South,188,5.8,5.8,93,0.00,CLR,,0.00,WeatherDisplay:10.37,2013-12-24 12:07:00,
2013-12-24 07:12:00,26.6,24.8,30.41,SW,224,15.0,15.0,93,0.00,CLR,,0.00,WeatherDisplay:10.37,2013-12-24 12:12:00,
2013-12-24 07:17:00,26.7,24.9,30.42,NNW,346,5.8,5.8,93,0.00,CLR,,0.00,WeatherDisplay:10.37,2013-12-24 12:17:00,
2013-12-24 07:22:00,26.6,24.3,30.41,SSW,195,10.4,10.4,91,0.00,CLR,,0.00,WeatherDisplay:10.37,2013-12-24 12:22:00,
2013-12-24 07:27:00,26.5,24.2,30.41,WSW,238,4.6,4.6,91,0.00,CLR,,0.00,WeatherDisplay:10.37,2013-12-24 12:27:00,
2013-12-24 07:32:00,26.5,24.2,30.42,SW,214,3.5,3.5,91,0.00,CLR,,0.00,WeatherDisplay:10.37,2013-12-24 12:32:00,
2013-12-24 07:37:00,26.4,24.1,30.41,East,81,4.6,4.6,91,0.00,CLR,,0.00,WeatherDisplay:10.37,2013-12-24 12:37:00,
2013-12-24 07:42:00,26.3,23.8,30.42,NNE,22,5.8,5.8,90,0.00,CLR,,0.00,WeatherDisplay:10.37,2013-12-24 12:42:00,
2013-12-24 07:47:00,26.2,23.9,30.42,NNE,22,5.4,5.4,91,0.00,CLR,,0.00,WeatherDisplay:10.37,2013-12-24 12:47:00,
2013-12-24 07:52:00,26.2,23.9,30.42,SSE,155,6.5,6.5,91,0.00,CLR,,0.00,WeatherDisplay:10.37,2013-12-24 12:52:00,
2013-12-24 07:57:00,26.3,24.0,30.42,ENE,73,1.2,0.0,91,0.00,CLR,,0.00,WeatherDisplay:10.37,2013-12-24 12:57:00,
2013-12-24 08:02:00,26.3,24.3,30.42,NNW,331,8.1,8.1,92,0.00,CLR,,0.00,WeatherDisplay:10.37,2013-12-24 13:02:00,
2013-12-24 08:07:00,26.4,24.1,30.43,SSW,193,10.4,10.4,91,0.00,CLR,,0.00,WeatherDisplay:10.37,2013-12-24 13:07:00,
2013-12-24 08:12:00,26.6,24.6,30.43,SE,127,4.4,4.4,92,0.00,CLR,,0.00,WeatherDisplay:10.37,2013-12-24 13:12:00,
2013-12-24 08:17:00,26.8,24.8,30.44,NNE,31,4.6,4.6,92,0.00,CLR,,0.00,WeatherDisplay:10.37,2013-12-24 13:17:00,
2013-12-24 08:22:00,26.8,24.5,30.43,SSW,193,8.1,8.1,91,0.00,CLR,,0.00,WeatherDisplay:10.37,2013-12-24 13:22:00,
2013-12-24 08:27:00,26.8,24.5,30.43,SSW,210,4.6,4.6,91,0.00,CLR,,0.00,WeatherDisplay:10.37,2013-12-24 13:27:00,
2013-12-24 08:32:00,26.8,24.3,30.44,West,265,13.8,13.8,90,0.00,CLR,,0.00,WeatherDisplay:10.37,2013-12-24 13:32:00,
2013-12-24 08:37:00,26.7,24.2,30.44,SW,231,13.8,13.8,90,0.00,CLR,,0.00,WeatherDisplay:10.37,2013-12-24 13:37:00,
2013-12-24 08:42:00,26.7,24.2,30.44,SSE,150,9.2,9.2,90,0.00,CLR,,0.00,WeatherDisplay:10.37,2013-12-24 13:42:00,
2013-12-24 08:47:00,26.7,24.4,30.44,South,187,6.9,6.9,91,0.00,CLR,,0.00,WeatherDisplay:10.37,2013-12-24 13:47:00,
2013-12-24 08:52:00,26.8,24.8,30.43,SSW,212,13.8,13.8,92,0.00,CLR,,0.00,WeatherDisplay:10.37,2013-12-24 13:52:00,
2013-12-24 08:57:00,26.9,24.6,30.44,SSW,205,10.4,10.4,91,0.00,CLR,,0.00,WeatherDisplay:10.37,2013-12-24 13:57:00,
2013-12-24 09:02:00,26.8,23.7,30.44,SSW,202,6.9,6.9,88,0.00,CLR,,0.00,WeatherDisplay:10.37,2013-12-24 14:02:00,
2013-12-24 09:07:00,26.6,23.8,30.44,South,180,5.8,5.8,89,0.00,CLR,,0.00,WeatherDisplay:10.37,2013-12-24 14:07:00,
2013-12-24 09:12:00,26.5,23.7,30.44,SE,127,0.0,0.0,89,0.00,CLR,,0.00,WeatherDisplay:10.37,2013-12-24 14:12:00,
2013-12-24 09:17:00,26.4,23.9,30.44,SSW,196,0.0,0.0,90,0.00,CLR,,0.00,WeatherDisplay:10.37,2013-12-24 14:17:00,
2013-12-24 09:22:00,26.5,23.7,30.44,SW,224,6.9,6.9,89,0.00,CLR,,0.00,WeatherDisplay:10.37,2013-12-24 14:22:00,
2013-12-24 09:27:00,26.5,24.0,30.45,SW,229,6.6,6.6,90,0.00,CLR,,0.00,WeatherDisplay:10.37,2013-12-24 14:27:00,
2013-12-24 09:32:00,26.6,23.8,30.46,WSW,239,16.1,16.1,89,0.00,CLR,,0.00,WeatherDisplay:10.37,2013-12-24 14:32:00,
2013-12-24 09:37:00,26.6,23.5,30.46,East,85,4.4,4.4,88,0.00,CLR,,0.00,WeatherDisplay:10.37,2013-12-24 14:37:00,
2013-12-24 09:42:00,26.6,23.3,30.47,NW,309,4.4,4.4,87,0.00,CLR,,0.00,WeatherDisplay:10.37,2013-12-24 14:42:00,
2013-12-24 09:47:00,26.5,22.9,30.47,WSW,240,9.2,13.6,86,0.00,CLR,,0.00,WeatherDisplay:10.37,2013-12-24 14:47:00,
2013-12-24 09:52:00,26.6,23.5,30.47,SSE,151,3.5,3.5,88,0.00,CLR,,0.00,WeatherDisplay:10.37,2013-12-24 14:52:00,
2013-12-24 09:57:00,26.8,24.0,30.48,SW,231,2.3,0.0,89,0.00,CLR,,0.00,WeatherDisplay:10.37,2013-12-24 14:57:00,
2013-12-24 10:02:00,26.9,23.5,30.48,NE,50,8.7,8.7,87,0.00,CLR,,0.00,WeatherDisplay:10.37,2013-12-24 15:02:00,
2013-12-24 10:07:00,26.9,23.3,30.48,ESE,105,11.5,11.5,86,0.00,CLR,,0.00,WeatherDisplay:10.37,2013-12-24 15:07:00,
2013-12-24 10:12:00,26.9,23.3,30.48,East,96,8.1,8.1,86,0.00,CLR,,0.00,WeatherDisplay:10.37,2013-12-24 15:12:00,
2013-12-24 10:17:00,27.0,23.1,30.49,East,95,11.5,11.5,85,0.00,CLR,,0.00,WeatherDisplay:10.37,2013-12-24 15:17:00,
2013-12-24 10:22:00,26.8,22.0,30.49,NNE,32,4.6,4.6,82,0.00,CLR,,0.00,WeatherDisplay:10.37,2013-12-24 15:22:00,
2013-12-24 10:27:00,26.8,22.9,30.49,WNW,291,3.5,3.5,85,0.00,CLR,,0.00,WeatherDisplay:10.37,2013-12-24 15:27:00,
2013-12-24 10:32:00,26.7,22.2,30.49,NNE,31,10.4,10.4,83,0.00,CLR,,0.00,WeatherDisplay:10.37,2013-12-24 15:32:00,
2013-12-24 10:37:00,26.6,21.8,30.50,ESE,120,7.6,7.6,82,0.00,CLR,,0.00,WeatherDisplay:10.37,2013-12-24 15:37:00,
2013-12-24 10:42:00,26.6,22.4,30.50,NE,56,5.8,5.8,84,0.00,CLR,,0.00,WeatherDisplay:10.37,2013-12-24 15:42:00,
2013-12-24 10:47:00,26.5,22.6,30.50,ESE,122,14.2,14.2,85,0.00,CLR,,0.00,WeatherDisplay:10.37,2013-12-24 15:47:00,
2013-12-24 10:52:00,26.4,22.2,30.50,SE,125,8.1,8.1,84,0.00,CLR,,0.00,WeatherDisplay:10.37,2013-12-24 15:52:00,
2013-12-24 10:57:00,26.4,23.1,30.50,WSW,241,1.3,1.3,87,0.00,CLR,,0.00,WeatherDisplay:10.37,2013-12-24 15:57:00,
2013-12-24 11:02:00,26.4,22.8,30.51,SW,229,13.8,13.8,86,0.00,CLR,,0.00,WeatherDisplay:10.37,2013-12-24 16:02:00,
2013-12-24 11:07:00,26.5,23.2,30.50,SW,229,21.9,21.9,87,0.00,,,0.00,WeatherDisplay:10.37,2013-12-24 16:07:00,
2013-12-24 11:12:00,26.5,23.2,30.50,South,180,2.2,2.2,87,0.00,CLR,,0.00,WeatherDisplay:10.37,2013-12-24 16:12:00,
2013-12-24 11:17:00,26.6,23.5,30.50,South,185,9.2,9.2,88,0.00,CLR,,0.00,WeatherDisplay:10.37,2013-12-24 16:17:00,
2013-12-24 11:22:00,26.7,23.9,30.50,SW,233,13.8,13.8,89,0.00,CLR,,0.00,WeatherDisplay:10.37,2013-12-24 16:22:00,
2013-12-24 11:27:00,26.8,23.7,30.50,WNW,303,3.5,3.5,88,0.00,CLR,,0.00,WeatherDisplay:10.37,2013-12-24 16:27:00,
2013-12-24 11:32:00,26.8,23.4,30.50,East,85,6.5,6.5,87,0.00,CLR,,0.00,WeatherDisplay:10.37,2013-12-24 16:32:00,
2013-12-24 11:37:00,26.7,23.1,30.50,SSW,198,4.6,4.6,86,0.00,CLR,,0.00,WeatherDisplay:10.37,2013-12-24 16:37:00,
2013-12-24 11:42:00,26.8,23.7,30.50,SW,227,5.8,5.8,88,0.00,CLR,,0.00,WeatherDisplay:10.37,2013-12-24 16:42:00,
2013-12-24 11:47:00,26.9,23.8,30.50,SW,216,9.2,9.2,88,0.00,CLR,,0.00,WeatherDisplay:10.37,2013-12-24 16:47:00,
2013-12-24 11:52:00,27.1,24.0,30.50,NW,308,13.8,13.8,88,0.00,CLR,,0.00,WeatherDisplay:10.37,2013-12-24 16:52:00,
2013-12-24 11:57:00,27.3,23.9,30.49,North,351,10.4,10.4,87,0.00,CLR,,0.00,WeatherDisplay:10.37,2013-12-24 16:57:00,
2013-12-24 12:02:00,27.3,24.2,30.49,West,272,1.2,1.2,88,0.00,CLR,,0.00,WeatherDisplay:10.37,2013-12-24 17:02:00,
2013-12-24 12:08:00,27.4,23.5,30.48,NW,305,5.8,5.8,85,0.00,CLR,,0.00,WeatherDisplay:10.37,2013-12-24 17:08:00,
2013-12-24 12:13:00,27.2,22.7,30.48,East,83,4.6,4.6,83,0.00,CLR,,0.00,WeatherDisplay:10.37,2013-12-24 17:13:00,
2013-12-24 12:18:00,27.1,22.9,30.48,ENE,66,2.3,2.3,84,0.00,CLR,,0.00,WeatherDisplay:10.37,2013-12-24 17:18:00,
2013-12-24 12:23:00,27.0,23.1,30.47,NE,34,8.1,8.1,85,0.00,CLR,,0.00,WeatherDisplay:10.37,2013-12-24 17:23:00,
2013-12-24 12:28:00,26.9,22.4,30.47,NNW,346,9.2,9.2,83,0.00,CLR,,0.00,WeatherDisplay:10.37,2013-12-24 17:28:00,
2013-12-24 12:33:00,26.7,22.2,30.47,ENE,66,6.9,6.9,83,0.00,CLR,,0.00,WeatherDisplay:10.37,2013-12-24 17:33:00,
2013-12-24 12:38:00,26.6,22.4,30.47,SW,216,6.9,6.9,84,0.00,CLR,,0.00,WeatherDisplay:10.37,2013-12-24 17:38:00,
2013-12-24 12:43:00,26.8,23.4,30.47,SSW,205,0.0,0.0,87,0.00,CLR,,0.00,WeatherDisplay:10.37,2013-12-24 17:43:00,
2013-12-24 12:48:00,26.9,22.7,30.48,NNE,24,5.4,5.4,84,0.00,CLR,,0.00,WeatherDisplay:10.37,2013-12-24 17:48:00,
2013-12-24 12:53:00,26.8,22.3,30.48,NE,48,11.5,11.5,83,0.00,CLR,,0.00,WeatherDisplay:10.37,2013-12-24 17:53:00,
2013-12-24 12:58:00,26.8,22.9,30.48,SSW,197,2.3,2.3,85,0.00,CLR,,0.00,WeatherDisplay:10.37,2013-12-24 17:58:00,
2013-12-24 13:03:00,27.0,23.6,30.48,SW,220,9.2,9.2,87,0.00,CLR,,0.00,WeatherDisplay:10.37,2013-12-24 18:03:00,
2013-12-24 13:08:00,27.0,22.2,30.48,NNE,19,10.4,10.4,82,0.00,CLR,,0.00,WeatherDisplay:10.37,2013-12-24 18:08:00,
2013-12-24 13:13:00,26.6,22.1,30.48,SE,141,4.6,4.6,83,0.00,CLR,,0.00,WeatherDisplay:10.37,2013-12-24 18:13:00,
2013-12-24 13:18:00,26.6,22.4,30.48,ENE,67,1.2,1.2,84,0.00,CLR,,0.00,WeatherDisplay:10.37,2013-12-24 18:18:00,
2013-12-24 13:23:00,26.6,22.7,30.48,SW,217,4.6,4.6,85,0.00,CLR,,0.00,WeatherDisplay:10.37,2013-12-24 18:23:00,
2013-12-24 13:28:00,26.5,22.3,30.49,West,267,5.8,5.8,84,0.00,CLR,,0.00,WeatherDisplay:10.37,2013-12-24 18:28:00,
2013-12-24 13:33:00,26.5,22.3,30.49,SW,215,15.0,15.0,84,0.00,CLR,,0.00,WeatherDisplay:10.37,2013-12-24 18:33:00,
2013-12-24 13:38:00,26.5,22.6,30.49,SW,234,10.6,10.6,85,0.00,CLR,,0.00,WeatherDisplay:10.37,2013-12-24 18:38:00,
2013-12-24 13:43:00,26.6,22.4,30.49,WNW,302,15.0,15.0,84,0.00,CLR,,0.00,WeatherDisplay:10.37,2013-12-24 18:43:00,
2013-12-24 13:48:00,26.7,23.1,30.49,North,360,5.8,5.8,86,0.00,CLR,,0.00,WeatherDisplay:10.37,2013-12-24 18:48:00,
2013-12-24 13:53:00,27.0,23.6,30.49,West,275,8.7,8.7,87,0.00,CLR,,0.00,WeatherDisplay:10.37,2013-12-24 18:53:00,
2013-12-24 13:58:00,27.3,23.1,30.49,West,264,6.9,6.9,84,0.00,CLR,,0.00,WeatherDisplay:10.37,2013-12-24 18:58:00,
2013-12-24 14:03:00,27.2,22.4,30.50,WNW,295,5.8,5.8,82,0.00,CLR,,0.00,WeatherDisplay:10.37,2013-12-24 19:03:00,
2013-12-24 14:08:00,27.0,22.2,30.50,WNW,283,9.2,9.2,82,0.00,CLR,,0.00,WeatherDisplay:10.37,2013-12-24 19:08:00,
2013-12-24 14:13:00,26.9,22.4,30.50,West,262,9.2,9.2,83,0.00,CLR,,0.00,WeatherDisplay:10.37,2013-12-24 19:13:00,
2013-12-24 14:18:00,26.9,22.7,30.50,WSW,253,10.4,10.4,84,0.00,CLR,,0.00,WeatherDisplay:10.37,2013-12-24 19:18:00,
2013-12-24 14:23:00,26.9,22.7,30.50,SW,235,13.8,13.8,84,0.00,CLR,,0.00,WeatherDisplay:10.37,2013-12-24 19:23:00,
2013-12-24 14:28:00,26.9,23.0,30.50,SW,227,2.3,2.3,85,0.00,CLR,,0.00,WeatherDisplay:10.37,2013-12-24 19:28:00,
2013-12-24 14:33:00,26.8,22.6,30.50,SSW,198,4.4,4.4,84,0.00,CLR,,0.00,WeatherDisplay:10.37,2013-12-24 19:33:00,
2013-12-24 14:38:00,26.8,22.6,30.50,SW,220,8.1,8.1,84,0.00,CLR,,0.00,WeatherDisplay:10.37,2013-12-24 19:38:00,
2013-12-24 14:43:00,26.8,22.6,30.50,NW,326,4.6,4.6,84,0.00,CLR,,0.00,WeatherDisplay:10.37,2013-12-24 19:43:00,
2013-12-24 14:48:00,26.7,22.5,30.50,NNW,346,6.9,6.9,84,0.00,CLR,,0.00,WeatherDisplay:10.37,2013-12-24 19:48:00,
2013-12-24 14:53:00,26.6,22.7,30.50,South,177,3.5,3.5,85,0.00,CLR,,0.00,WeatherDisplay:10.37,2013-12-24 19:53:00,
2013-12-24 14:58:00,26.7,23.4,30.50,SSE,164,2.3,2.3,87,0.00,CLR,,0.00,WeatherDisplay:10.37,2013-12-24 19:58:00,
2013-12-24 15:03:00,26.9,22.7,30.50,NW,313,3.5,3.5,84,0.00,CLR,,0.00,WeatherDisplay:10.37,2013-12-24 20:03:00,
2013-12-24 15:08:00,26.8,22.3,30.51,East,82,1.2,0.0,83,0.00,CLR,,0.00,WeatherDisplay:10.37,2013-12-24 20:08:00,
2013-12-24 15:13:00,26.6,21.8,30.50,NNW,346,2.3,0.0,82,0.00,CLR,,0.00,WeatherDisplay:10.37,2013-12-24 20:13:00,
2013-12-24 15:18:00,26.5,22.3,30.50,East,98,4.6,4.6,84,0.00,CLR,,0.00,WeatherDisplay:10.37,2013-12-24 20:18:00,
2013-12-24 15:23:00,26.4,21.7,30.50,NE,43,5.8,5.8,82,0.00,CLR,,0.00,WeatherDisplay:10.37,2013-12-24 20:23:00,
2013-12-24 15:28:00,26.2,21.5,30.50,ENE,62,3.5,3.5,82,0.00,CLR,,0.00,WeatherDisplay:10.37,2013-12-24 20:28:00,
2013-12-24 15:33:00,26.1,21.6,30.51,ENE,60,2.3,2.3,83,0.00,CLR,,0.00,WeatherDisplay:10.37,2013-12-24 20:33:00,
2013-12-24 15:38:00,26.1,21.4,30.51,WNW,298,4.6,4.6,82,0.00,CLR,,0.00,WeatherDisplay:10.37,2013-12-24 20:38:00,
2013-12-24 15:43:00,26.2,22.0,30.51,NE,35,4.6,4.6,84,0.00,CLR,,0.00,WeatherDisplay:10.37,2013-12-24 20:43:00,
2013-12-24 15:48:00,26.2,21.7,30.51,NNW,339,4.6,4.6,83,0.00,CLR,,0.00,WeatherDisplay:10.37,2013-12-24 20:48:00,
2013-12-24 15:53:00,26.2,21.5,30.51,NNE,15,2.3,2.3,82,0.00,CLR,,0.00,WeatherDisplay:10.37,2013-12-24 20:53:00,
2013-12-24 15:58:00,26.2,21.5,30.51,NE,44,3.5,3.5,82,0.00,CLR,,0.00,WeatherDisplay:10.37,2013-12-24 20:58:00,
2013-12-24 16:03:00,26.3,21.6,30.51,NE,36,1.2,1.2,82,0.00,CLR,,0.00,WeatherDisplay:10.37,2013-12-24 21:03:00,
2013-12-24 16:08:00,26.4,21.7,30.51,NE,36,3.5,3.5,82,0.00,CLR,,0.00,WeatherDisplay:10.37,2013-12-24 21:08:00,
2013-12-24 16:13:00,26.5,22.0,30.51,NE,56,3.5,3.5,83,0.00,CLR,,0.00,WeatherDisplay:10.37,2013-12-24 21:13:00,
2013-12-24 16:18:00,26.7,22.8,30.52,SW,229,2.3,2.3,85,0.00,CLR,,0.00,WeatherDisplay:10.37,2013-12-24 21:18:00,
2013-12-24 16:23:00,27.0,22.8,30.52,NNW,346,5.4,5.4,84,0.00,CLR,,0.00,WeatherDisplay:10.37,2013-12-24 21:23:00,
2013-12-24 16:28:00,26.9,21.8,30.52,NNE,18,9.2,9.2,81,0.00,CLR,,0.00,WeatherDisplay:10.37,2013-12-24 21:28:00,
2013-12-24 16:33:00,26.8,22.0,30.52,NW,318,6.9,6.9,82,0.00,CLR,,0.00,WeatherDisplay:10.37,2013-12-24 21:33:00,
2013-12-24 16:38:00,26.7,21.1,30.52,NNE,12,6.9,6.9,79,0.00,CLR,,0.00,WeatherDisplay:10.37,2013-12-24 21:38:00,
2013-12-24 16:43:00,26.5,21.2,30.52,NNW,336,5.4,5.4,80,0.00,CLR,,0.00,WeatherDisplay:10.37,2013-12-24 21:43:00,
2013-12-24 16:48:00,26.4,21.1,30.52,WNW,300,6.9,6.9,80,0.00,CLR,,0.00,WeatherDisplay:10.37,2013-12-24 21:48:00,
2013-12-24 16:53:00,26.3,21.0,30.52,NNW,342,3.5,3.5,80,0.00,CLR,,0.00,WeatherDisplay:10.37,2013-12-24 21:53:00,
2013-12-24 16:58:00,26.2,20.9,30.52,WNW,302,4.6,4.6,80,0.00,CLR,,0.00,WeatherDisplay:10.37,2013-12-24 21:58:00,
2013-12-24 17:03:00,26.2,20.6,30.52,NNW,346,0.0,0.0,79,0.00,CLR,,0.00,WeatherDisplay:10.37,2013-12-24 22:03:00,
2013-12-24 17:08:00,26.1,20.8,30.52,NW,313,1.2,0.0,80,0.00,CLR,,0.00,WeatherDisplay:10.37,2013-12-24 22:08:00,
2013-12-24 17:13:00,26.0,21.3,30.52,NNE,29,0.0,0.0,82,0.00,CLR,,0.00,WeatherDisplay:10.37,2013-12-24 22:13:00,
2013-12-24 17:18:00,25.9,21.4,30.52,SSW,200,0.0,0.0,83,0.00,CLR,,0.00,WeatherDisplay:10.37,2013-12-24 22:18:00,
2013-12-24 17:23:00,25.9,21.2,30.52,West,268,6.9,6.9,82,0.00,CLR,,0.00,WeatherDisplay:10.37,2013-12-24 22:23:00,
2013-12-24 17:28:00,25.7,20.4,30.52,NE,35,4.6,4.6,80,0.00,CLR,,0.00,WeatherDisplay:10.37,2013-12-24 22:28:00,
2013-12-24 17:33:00,25.5,20.2,30.52,SW,231,9.2,9.2,80,0.00,CLR,,0.00,WeatherDisplay:10.37,2013-12-24 22:33:00,
2013-12-24 17:38:00,25.4,20.1,30.52,West,266,10.4,10.4,80,0.00,CLR,,0.00,WeatherDisplay:10.37,2013-12-24 22:38:00,
2013-12-24 17:43:00,25.2,20.2,30.51,SW,224,5.8,5.8,81,0.00,CLR,,0.00,WeatherDisplay:10.37,2013-12-24 22:43:00,
2013-12-24 17:48:00,25.1,20.7,30.52,SW,235,2.7,2.7,83,0.00,CLR,,0.00,WeatherDisplay:10.37,2013-12-24 22:48:00,
2013-12-24 17:53:00,25.0,20.3,30.52,WNW,293,4.6,4.6,82,0.00,CLR,,0.00,WeatherDisplay:10.37,2013-12-24 22:53:00,
2013-12-24 17:58:00,24.8,20.1,30.52,West,281,4.6,4.6,82,0.00,CLR,,0.00,WeatherDisplay:10.37,2013-12-24 22:58:00,
2013-12-24 18:03:00,24.7,20.0,30.52,WNW,302,4.6,4.6,82,0.00,CLR,,0.00,WeatherDisplay:10.37,2013-12-24 23:03:00,
2013-12-24 18:08:00,24.6,19.9,30.52,WNW,302,0.0,0.0,82,0.00,CLR,,0.00,WeatherDisplay:10.37,2013-12-24 23:08:00,
2013-12-24 18:13:00,24.4,19.4,30.52,NNW,337,3.5,3.5,81,0.00,CLR,,0.00,WeatherDisplay:10.37,2013-12-24 23:13:00,
2013-12-24 18:18:00,24.3,19.0,30.52,NNW,329,4.6,4.6,80,0.00,CLR,,0.00,WeatherDisplay:10.37,2013-12-24 23:18:00,
2013-12-24 18:23:00,24.2,19.2,30.52,NW,308,8.1,8.1,81,0.00,CLR,,0.00,WeatherDisplay:10.37,2013-12-24 23:23:00,
2013-12-24 18:28:00,24.1,19.4,30.53,West,281,4.6,4.6,82,0.00,CLR,,0.00,WeatherDisplay:10.37,2013-12-24 23:28:00,
2013-12-24 18:33:00,24.0,19.3,30.52,NNW,331,4.6,4.6,82,0.00,CLR,,0.00,WeatherDisplay:10.37,2013-12-24 23:33:00,
2013-12-24 18:38:00,24.0,19.6,30.53,NNW,346,0.0,0.0,83,0.00,CLR,,0.00,WeatherDisplay:10.37,2013-12-24 23:38:00,
2013-12-24 18:43:00,23.9,19.8,30.52,NE,46,0.0,0.0,84,0.00,CLR,,0.00,WeatherDisplay:10.37,2013-12-24 23:43:00,
2013-12-24 18:48:00,23.8,19.4,30.52,North,6,8.1,8.1,83,0.00,CLR,,0.00,WeatherDisplay:10.37,2013-12-24 23:48:00,
2013-12-24 18:53:00,23.7,19.0,30.53,NW,304,0.0,0.0,82,0.00,CLR,,0.00,WeatherDisplay:10.37,2013-12-24 23:53:00,
2013-12-24 18:58:00,23.6,18.9,30.53,NW,312,5.8,5.8,82,0.00,CLR,,0.00,WeatherDisplay:10.37,2013-12-24 23:58:00,
2013-12-24 19:03:00,23.5,18.8,30.53,West,271,8.1,8.1,82,0.00,CLR,,0.00,WeatherDisplay:10.37,2013-12-25 00:03:00,
2013-12-24 19:08:00,23.4,19.0,30.53,SW,236,3.5,3.5,83,0.00,CLR,,0.00,WeatherDisplay:10.37,2013-12-25 00:08:00,
2013-12-24 19:13:00,23.4,18.7,30.53,North,10,10.4,10.4,82,0.00,CLR,,0.00,WeatherDisplay:10.37,2013-12-25 00:13:00,
2013-12-24 19:18:00,23.3,18.9,30.53,West,278,6.9,6.9,83,0.00,CLR,,0.00,WeatherDisplay:10.37,2013-12-25 00:18:00,
2013-12-24 19:23:00,23.3,18.9,30.53,NNE,30,0.0,0.0,83,0.00,CLR,,0.00,WeatherDisplay:10.37,2013-12-25 00:23:00,
2013-12-24 19:28:00,23.3,19.2,30.53,SE,132,1.2,1.2,84,0.00,CLR,,0.00,WeatherDisplay:10.37,2013-12-25 00:28:00,
2013-12-24 19:33:00,23.2,18.8,30.53,SSE,148,4.6,4.6,83,0.00,CLR,,0.00,WeatherDisplay:10.37,2013-12-25 00:33:00,
2013-12-24 19:38:00,23.2,18.8,30.52,SE,146,4.6,4.6,83,0.00,CLR,,0.00,WeatherDisplay:10.37,2013-12-25 00:38:00,
2013-12-24 19:43:00,23.1,18.7,30.52,SW,230,0.0,0.0,83,0.00,CLR,,0.00,WeatherDisplay:10.37,2013-12-25 00:43:00,
2013-12-24 19:48:00,23.0,18.6,30.52,South,181,3.5,0.0,83,0.00,CLR,,0.00,WeatherDisplay:10.37,2013-12-25 00:48:00,
2013-12-24 19:53:00,22.9,18.5,30.52,SE,129,1.2,0.0,83,0.00,CLR,,0.00,WeatherDisplay:10.37,2013-12-25 00:53:00,
2013-12-24 19:58:00,22.8,18.4,30.52,North,360,4.6,4.6,83,0.00,CLR,,0.00,WeatherDisplay:10.37,2013-12-25 00:58:00,
2013-12-24 20:03:00,22.8,18.7,30.52,ENE,65,0.0,0.0,84,0.00,CLR,,0.00,WeatherDisplay:10.37,2013-12-25 01:03:00,
2013-12-24 20:08:00,22.7,18.3,30.52,ENE,65,0.0,0.0,83,0.00,CLR,,0.00,WeatherDisplay:10.37,2013-12-25 01:08:00,
2013-12-24 20:13:00,22.6,18.2,30.52,ENE,64,0.0,0.0,83,0.00,CLR,,0.00,WeatherDisplay:10.37,2013-12-25 01:13:00,
2013-12-24 20:18:00,22.5,18.4,30.52,ENE,64,0.0,0.0,84,0.00,CLR,,0.00,WeatherDisplay:10.37,2013-12-25 01:18:00,
2013-12-24 20:23:00,22.5,18.7,30.52,ENE,65,0.0,0.0,85,0.00,CLR,,0.00,WeatherDisplay:10.37,2013-12-25 01:23:00,
2013-12-24 20:28:00,22.4,18.6,30.52,ENE,65,0.0,0.0,85,0.00,CLR,,0.00,WeatherDisplay:10.37,2013-12-25 01:28:00,
2013-12-24 20:33:00,22.3,18.7,30.52,ENE,64,0.0,0.1,86,0.00,CLR,,0.00,WeatherDisplay:10.37,2013-12-25 01:33:00,
2013-12-24 20:38:00,22.3,18.7,30.52,ENE,64,0.0,0.0,86,0.00,CLR,,0.00,WeatherDisplay:10.37,2013-12-25 01:38:00,
2013-12-24 20:43:00,22.3,18.5,30.52,ENE,69,3.5,3.5,85,0.00,CLR,,0.00,WeatherDisplay:10.37,2013-12-25 01:43:00,
2013-12-24 20:48:00,22.2,18.1,30.52,ENE,69,1.1,1.1,84,0.00,CLR,,0.00,WeatherDisplay:10.37,2013-12-25 01:48:00,
2013-12-24 20:53:00,22.1,18.3,30.52,ENE,69,0.0,0.0,85,0.00,CLR,,0.00,WeatherDisplay:10.37,2013-12-25 01:53:00,
2013-12-24 20:58:00,22.1,18.3,30.52,ENE,69,2.3,0.0,85,0.00,CLR,,0.00,WeatherDisplay:10.37,2013-12-25 01:58:00,
2013-12-24 21:03:00,22.1,18.3,30.53,ENE,69,0.0,0.0,85,0.00,CLR,,0.00,WeatherDisplay:10.37,2013-12-25 02:03:00,
2013-12-24 21:09:00,22.1,18.0,30.53,ENE,67,2.3,2.3,84,0.00,CLR,,0.00,WeatherDisplay:10.37,2013-12-25 02:09:00,
2013-12-24 21:14:00,22.1,18.3,30.52,ENE,66,0.0,0.0,85,0.00,CLR,,0.00,WeatherDisplay:10.37,2013-12-25 02:14:00,
2013-12-24 21:19:00,22.1,18.3,30.52,ENE,66,2.3,2.3,85,0.00,CLR,,0.00,WeatherDisplay:10.37,2013-12-25 02:19:00,
2013-12-24 21:24:00,22.1,18.3,30.52,ENE,67,0.0,0.0,85,0.00,CLR,,0.00,WeatherDisplay:10.37,2013-12-25 02:24:00,
2013-12-24 21:29:00,22.0,18.2,30.53,ENE,67,0.0,0.0,85,0.00,CLR,,0.00,WeatherDisplay:10.37,2013-12-25 02:29:00,
2013-12-24 21:34:00,21.9,18.1,30.52,ENE,66,2.3,2.3,85,0.00,CLR,,0.00,WeatherDisplay:10.37,2013-12-25 02:34:00,
2013-12-24 21:39:00,21.9,18.1,30.52,ENE,63,2.3,2.3,85,0.00,CLR,,0.00,WeatherDisplay:10.37,2013-12-25 02:39:00,
2013-12-24 21:44:00,21.8,18.0,30.52,ENE,62,0.0,0.0,85,0.00,CLR,,0.00,WeatherDisplay:10.37,2013-12-25 02:44:00,
2013-12-24 21:49:00,21.8,18.0,30.53,ENE,62,0.0,0.0,85,0.00,CLR,,0.00,WeatherDisplay:10.37,2013-12-25 02:49:00,
2013-12-24 21:54:00,21.7,17.9,30.52,ENE,62,0.0,0.0,85,0.00,CLR,,0.00,WeatherDisplay:10.37,2013-12-25 02:54:00,
2013-12-24 21:59:00,21.7,18.2,30.53,ENE,62,2.3,0.0,86,0.00,CLR,,0.00,WeatherDisplay:10.37,2013-12-25 02:59:00,
2013-12-24 22:04:00,21.6,17.8,30.53,ENE,63,0.0,0.0,85,0.00,CLR,,0.00,WeatherDisplay:10.37,2013-12-25 03:04:00,
2013-12-24 22:09:00,21.6,18.3,30.53,ENE,63,0.0,0.0,87,0.00,CLR,,0.00,WeatherDisplay:10.37,2013-12-25 03:09:00,
2013-12-24 22:14:00,21.6,17.8,30.53,ENE,63,0.0,0.0,85,0.00,CLR,,0.00,WeatherDisplay:10.37,2013-12-25 03:14:00,
2013-12-24 22:19:00,21.5,18.2,30.53,ENE,63,0.0,0.0,87,0.00,CLR,,0.00,WeatherDisplay:10.37,2013-12-25 03:19:00,
2013-12-24 22:24:00,21.4,18.1,30.53,ENE,63,0.0,0.0,87,0.00,CLR,,0.00,WeatherDisplay:10.37,2013-12-25 03:24:00,
2013-12-24 22:29:00,21.4,18.1,30.53,ENE,63,0.0,0.0,87,0.00,CLR,,0.00,WeatherDisplay:10.37,2013-12-25 03:29:00,
2013-12-24 22:34:00,21.2,18.2,30.53,ENE,63,0.0,0.0,88,0.00,CLR,,0.00,WeatherDisplay:10.37,2013-12-25 03:34:00,
2013-12-24 22:39:00,21.1,18.4,30.53,ENE,63,0.0,0.0,89,0.00,CLR,,0.00,WeatherDisplay:10.37,2013-12-25 03:39:00,
2013-12-24 22:44:00,21.0,18.3,30.53,ENE,63,0.0,0.0,89,0.00,CLR,,0.00,WeatherDisplay:10.37,2013-12-25 03:44:00,
2013-12-24 22:49:00,20.9,18.4,30.54,ENE,63,0.0,0.0,90,0.00,CLR,,0.00,WeatherDisplay:10.37,2013-12-25 03:49:00,
2013-12-24 22:54:00,20.8,18.3,30.54,ENE,63,0.0,0.0,90,0.00,CLR,,0.00,WeatherDisplay:10.37,2013-12-25 03:54:00,
2013-12-24 22:59:00,20.7,18.2,30.54,ENE,63,0.0,0.0,90,0.00,CLR,,0.00,WeatherDisplay:10.37,2013-12-25 03:59:00,
2013-12-24 23:04:00,20.6,18.4,30.55,ENE,62,0.0,0.0,91,0.00,CLR,,0.00,WeatherDisplay:10.37,2013-12-25 04:04:00,
2013-12-24 23:09:00,20.5,18.3,30.55,ENE,63,0.0,0.0,91,0.00,CLR,,0.00,WeatherDisplay:10.37,2013-12-25 04:09:00,
2013-12-24 23:14:00,20.5,18.5,30.55,ENE,63,0.0,0.0,92,0.00,CLR,,0.00,WeatherDisplay:10.37,2013-12-25 04:14:00,
2013-12-24 23:19:00,20.4,18.4,30.55,ENE,62,0.0,0.0,92,0.00,CLR,,0.00,WeatherDisplay:10.37,2013-12-25 04:19:00,
2013-12-24 23:24:00,20.3,18.1,30.54,ENE,63,0.0,0.0,91,0.00,CLR,,0.00,WeatherDisplay:10.37,2013-12-25 04:24:00,
2013-12-24 23:29:00,20.3,18.3,30.54,ENE,62,0.0,0.0,92,0.00,CLR,,0.00,WeatherDisplay:10.37,2013-12-25 04:29:00,
2013-12-24 23:34:00,20.2,18.0,30.53,ENE,62,0.0,0.0,91,0.00,CLR,,0.00,WeatherDisplay:10.37,2013-12-25 04:34:00,
2013-12-24 23:39:00,20.1,18.1,30.53,ENE,62,0.0,0.0,92,0.00,CLR,,0.00,WeatherDisplay:10.37,2013-12-25 04:39:00,
2013-12-24 23:44:00,20.1,18.1,30.53,ENE,63,0.0,0.0,92,0.00,CLR,,0.00,WeatherDisplay:10.37,2013-12-25 04:44:00,
2013-12-24 23:49:00,20.0,18.1,30.53,ENE,63,0.0,0.0,92,0.00,CLR,,0.00,WeatherDisplay:10.37,2013-12-25 04:49:00,
2013-12-24 23:54:00,19.9,18.0,30.53,ENE,63,0.0,0.0,92,0.00,CLR,,0.00,WeatherDisplay:10.37,2013-12-25 04:54:00,
2013-12-24 23:59:00,19.9,18.0,30.53,ENE,63,0.0,0.0,92,0.00,CLR,,0.00,WeatherDisplay:10.37,2013-12-25 04:59:00,